Terminal Aerodrome Forecast
Issued by NWS Spokane, WA

Home | Current Version | Previous Version | Text Only | Print | Product List | Glossary On
Versions: 1 2 3 4 5 6 7 8 9 10 11 12 13 14 15 16 17 18 19 20 21 22 23 24 25 26 27 28 29 30
000
FTUS46 KOTX 292322
TAFGEG
TAF
KGEG 292322Z 3000/3024 20011KT P6SM SCT060 BKN200
     FM300300 16005KT P6SM FEW100 BKN200
     FM300900 14005KT P6SM SCT250
     FM301800 21011G19KT P6SM SCT250=

USA.gov is the U.S. government's official web portal to all federal, state and local government web resources and services.